User: anonymous   Login
Location: Unspecified
(0.0000°N, 0.0000°E)
Time: 09:15:06
(UTC+00:00)
Language:

OAO 3 Copernicus - Orbit

View from above orbital plane
View from above orbital plane
View from above satellite
View from above satellite

Ground track
Ground track

The orbit data is extracted from the following two-line orbital elements,

1  6153U 72065A   18109.93139712 +.00000039 +00000-0 +12771-4 0  9993
2  6153 035.0063 108.9499 0006367 047.7578 039.9125 14.57874304425401
Epoch (UTC): 19 April 2018 22:21:12
Eccentricity: 0.0006367
inclination: 35.0063°
perigee height: 695 km
apogee height: 704 km
right ascension of ascending node: 108.9499°
argument of perigee: 47.7578°
revolutions per day: 14.57874304
mean anomaly at epoch: 39.9125°
orbit number at epoch: 42540

The dashed part of the orbit path shows where the satellite is in the earth's shadow,  

DLR